#timestamp,LO_Frequency,Hit,StdDev 
1514764815.8,286046994.7,N
1514764835.6,286046994.3,N
1514764855.5,286046996.9,N
1514764875.3,286046999.5,N
1514764895.1,286047001.2,N
1514764915.8,286047000.0,N
1514764935.7,286047005.6,N
1514764955.5,286047005.0,N
1514764975.3,286047007.3,N
1514764995.2,286047008.9,N
1514765015.9,286047006.4,N
1514765035.7,286047010.0,N
1514765055.6,286047011.6,N
1514765075.4,286047012.8,N
1514765095.2,286047017.1,N
1514765115.1,286047015.8,N
1514765116.0,286047015.8,N
1514765135.8,286047017.3,N
1514765155.6,286047016.9,N
1514765175.5,286047015.5,N
1514765195.3,286047015.0,N
1514765215.1,286047015.2,N
1514765235.8,286047016.8,N
1514765255.7,286047012.3,N
1514765275.5,286047008.3,N
1514765295.3,286047009.6,N
1514765315.2,286047012.4,N
1514765335.9,286047009.6,N
1514765355.7,286047009.6,N
1514765375.6,286047013.7,N
1514765395.4,286047009.9,N
1514765415.2,286047006.9,N
1514765435.1,286047004.3,N
1514765436.0,286047004.3,N
1514765455.8,286047002.6,N
1514765475.6,286047000.5,N
1514765495.5,286046998.4,N
1514765515.3,286046997.2,N
1514765535.1,286046999.5,N
1514765555.8,286046998.4,N
1514765575.7,286046997.0,N
1514765595.5,286046995.7,N
1514765615.3,286046997.3,N
1514765635.2,286046997.3,N
1514765655.0,286046999.4,N
1514765655.9,286046999.4,N
1514765675.7,286046998.9,N
1514765695.6,286046997.9,N
1514765715.4,286046995.8,N
1514765735.2,286046995.4,N
1514765755.1,286046992.0,N
1514765756.0,286046992.0,N
1514765775.8,286046992.0,N
1514765795.6,286046992.3,N
1514765815.5,286046993.0,N
1514765835.3,286046992.4,N
1514765855.1,286046994.5,N
1514765875.9,286046992.3,N
1514765895.7,286046993.1,N
1514765915.5,286046990.6,N
1514765935.4,286046993.1,N
1514765955.2,286046992.0,N
1514765975.0,286046992.6,N
1514765975.9,286046992.6,N
1514765995.7,286046991.1,N
1514766015.6,286046990.8,Y
1514766035.4,286046994.9,P
1514766055.3,286046997.3,P
1514766075.1,286047000.7,N
1514766076.0,286047000.7,N
1514766095.8,286047003.8,N
1514766115.7,286047008.5,N
1514766135.5,286047007.5,N
1514766155.3,286047004.3,N
1514766175.1,286047002.0,N
1514766195.9,286047003.0,N
1514766215.7,286047002.6,N
1514766235.5,286047004.7,N
1514766255.4,286047005.7,N
1514766275.2,286047001.5,N
1514766295.0,286047002.0,N
1514766295.9,286047002.0,N
1514766315.8,286046996.8,N
1514766335.6,286046997.2,N
1514766355.4,286046997.0,N
1514766375.3,286046999.1,N
1514766395.1,286047000.7,N
1514766396.0,286047000.7,N
1514766415.8,286047001.1,N
1514766435.7,286047002.6,N
1514766455.5,286047002.4,N
1514766475.3,286046998.9,N
1514766495.1,286046998.9,N
1514766515.9,286046998.6,N
1514766535.7,286047005.0,N
1514766555.5,286047005.2,N
1514766575.4,286047005.1,N
1514766595.2,286047003.8,N
1514766615.0,286047005.0,N
1514766615.9,286047005.0,N
1514766635.8,286047007.6,N
1514766655.6,286047004.3,N
1514766675.4,286047002.2,N
1514766695.3,286047004.4,N
1514766715.1,286047002.9,N
1514766716.0,286047002.9,N
1514766735.8,286047004.0,N
1514766755.7,286047003.6,N
1514766775.5,286047007.4,N
1514766795.3,286047001.3,N
1514766815.2,286047002.8,N
1514766835.9,286047001.6,N
1514766855.7,286047003.6,N
1514766875.5,286047002.0,N
1514766895.4,286046998.9,N
1514766915.2,286046998.1,N
1514766935.0,286047002.2,N
1514766935.9,286047002.2,N
1514766955.8,286047000.1,N
1514766975.6,286047002.8,N
1514766995.4,286047003.1,N
1514767015.3,286047009.1,Y
1514767035.1,286047008.8,P
1514767055.8,286047008.7,N
1514767075.7,286047012.7,P
1514767095.5,286047015.5,Y
1514767115.3,286047006.7,P
1514767135.2,286047004.6,P
1514767155.0,286047003.8,N
1514767155.9,286047003.8,N
1514767175.7,286047004.0,N
1514767195.6,286047004.0,N
1514767215.4,286047001.1,N
1514767235.2,286047003.3,N
1514767255.1,286047006.0,Y
1514767256.0,286047006.0,P
1514767275.8,286047000.4,N
1514767295.6,286046999.6,N
1514767315.5,286046998.7,N
1514767335.3,286046998.4,N
1514767355.1,286046999.5,N
1514767375.9,286046998.6,N
1514767395.7,286046998.6,N
1514767415.5,286046998.8,N
1514767435.4,286046997.8,N
1514767455.2,286046997.0,N
1514767475.0,286046995.1,N
1514767475.9,286046995.1,N
1514767495.7,286046993.8,N
1514767515.6,286046990.5,Y
1514767535.4,286046995.8,P
1514767555.2,286046993.9,P
1514767575.1,286046996.3,N
1514767576.0,286046996.3,N
1514767595.8,286046994.7,Y
1514767615.7,286046998.5,P
1514767635.5,286046996.5,P
1514767655.3,286046999.1,N
1514767675.2,286046995.6,Y
1514767695.9,286046996.5,P
1514767715.7,286047001.0,N
1514767735.5,286047001.3,N
1514767755.4,286046999.8,N
1514767775.2,286046997.1,N
1514767795.0,286046997.8,N
1514767795.9,286046997.8,N
1514767815.8,286046997.1,N
1514767835.6,286046997.7,N
1514767855.4,286046998.8,N
1514767875.3,286046999.5,N
1514767895.1,286046996.7,N
1514767915.8,286047000.9,N
1514767935.7,286047001.0,N
1514767955.5,286046995.2,N
1514767975.3,286047000.3,N
1514767995.2,286046996.8,N
1514768015.9,286047000.6,N
1514768035.7,286046999.8,N
1514768055.5,286047005.2,N
1514768075.4,286047004.4,N
1514768095.2,286047002.2,N
1514768115.0,286047000.5,N
1514768115.9,286047000.5,N
1514768135.8,286047002.4,N
1514768155.6,286047000.0,N
1514768175.4,286047000.7,N
1514768195.3,286046998.2,N
1514768215.1,286047001.0,N
1514768216.0,286047001.0,N
1514768235.8,286047000.2,N
1514768255.7,286046999.6,N
1514768275.5,286046998.8,N
1514768295.3,286046998.9,N
1514768315.2,286046998.3,N
1514768335.9,286046999.0,N
1514768355.7,286046996.9,N
1514768375.5,286046995.3,N
1514768395.4,286046995.4,N
